This is the latest recevied weather packets stored in our database for station/object K2CCS. If no packets are shown the sender has not sent any weather packets the latest 10 day(s).
| Time | Temp. | Humidity | Pressure | Rain* | Wind** | Luminosity | Snow |
|---|---|---|---|---|---|---|---|
| 1777811754 | 7.22° C | 64% | 1015.1 hPa | 0 mm | - | 117 W/m² | - |
| 1777811450 | 7.22° C | 65% | 1015.1 hPa | 0 mm | - | 112 W/m² | - |
| 1777811146 | 7.22° C | 65% | 1015.2 hPa | 0 mm | - | 109 W/m² | - |
| 1777810844 | 7.22° C | 64% | 1015.2 hPa | 0 mm | - | 117 W/m² | - |
| 1777810540 | 7.22° C | 64% | 1015.2 hPa | 0 mm | - | 118 W/m² | - |
| 1777810237 | 7.22° C | 64% | 1015.1 hPa | 0 mm | - | 113 W/m² | - |
| 1777809933 | 7.22° C | 65% | 1015 hPa | 0 mm | - | 109 W/m² | - |
| 1777809632 | 7.22° C | 64% | 1015 hPa | 0 mm | - | 101 W/m² | - |
| 1777809329 | 6.67° C | 65% | 1015.2 hPa | 0 mm | - | 98 W/m² | - |
| 1777809026 | 6.67° C | 65% | 1015.2 hPa | 0 mm | - | 92 W/m² | - |
| 1777808723 | 6.67° C | 67% | 1015 hPa | 0 mm | - | 85 W/m² | - |
| 1777808420 | 6.67° C | 69% | 1015.3 hPa | 0 mm | - | 78 W/m² | - |
| 1777808118 | 6.67° C | 69% | 1015.2 hPa | 0 mm | - | 73 W/m² | - |
| 1777807816 | 6.67° C | 70% | 1014.9 hPa | 0 mm | - | 66 W/m² | - |
| 1777807514 | 6.11° C | 70% | 1015.1 hPa | 0 mm | - | 60 W/m² | - |
| 1777807210 | 6.11° C | 72% | 1015 hPa | 0 mm | - | 55 W/m² | - |
| 1777806907 | 6.11° C | 73% | 1015.1 hPa | 0 mm | - | 50 W/m² | - |
| 1777806603 | 5.56° C | 74% | 1015 hPa | 0 mm | - | 46 W/m² | - |
| 1777806299 | 5.56° C | 74% | 1015 hPa | 0 mm | - | 41 W/m² | - |
| 1777805996 | 5.56° C | 74% | 1014.9 hPa | 0 mm | - | 38 W/m² | - |
| 1777805692 | 5.56° C | 74% | 1014.8 hPa | 0 mm | - | 34 W/m² | - |
| 1777805390 | 5.56° C | 74% | 1014.7 hPa | 0 mm | - | 31 W/m² | - |
| 1777805088 | 5.56° C | 74% | 1014.7 hPa | 0 mm | - | 26 W/m² | - |
| 1777804785 | 5.56° C | 75% | 1014.7 hPa | 0 mm | - | 22 W/m² | - |
| 1777804483 | 5.56° C | 75% | 1014.8 hPa | 0 mm | - | 18 W/m² | - |
* Rain latest hour (hover to see other rain measurements)
** Current wind speed in m/s (hover to see current wind gust speed)